Weather History for St. Joseph, MO

Change the Weather History Date:

Monday, November 21, 2011

  Actual Average Record
Temperature  
Mean Temperature 40 °F 39 °F  
Max Temperature 44 °F 50 °F 75 °F (1966)
Min Temperature 35 °F 29 °F 4 °F (1937)
Degree Days  
Heating Degree Days 25 26  
Month to date heating degree days 403 439  
Since 1 July heating degree days 742 858  
Cooling Degree Days 0 0  
Month to date cooling degree days 0 0  
Year to date cooling degree days 494 1220  
Moisture  
Dew Point 34 °F    
Average Humidity 77    
Maximum Humidity 89    
Minimum Humidity 65    
Precipitation  
Precipitation 0.00 in 0.04 in 1.10 in (1934)
Month to date precipitation 3.40 1.19  
Year to date precipitation 17.35 33.72  
Sea Level Pressure  
Sea Level Pressure 30.19 in    
Wind  
Wind Speed 3 mph (NE)    
Max Wind Speed 9 mph    
Max Gust Speed 12 mph    
Visibility 8 miles    
Events      
T = Trace of Precipitation, MM = Missing Value Source: NWS Daily Summary

Daily Weather History Graph

Daily Weather History Graph

Search for Another Location

Airport:

Trip Planner

Search our weather history database for the weather conditions in past years. The results will help you decide how hot, cold, wet, or windy it might be!

Date:

Astronomy

Nov. 21, 2011 Rise Set
Actual Time 7:10 AM CST 4:59 PM CST
Civil Twilight 6:41 AM CST 5:29 PM CST
Nautical Twilight 6:08 AM CST 6:02 PM CST
Astronomical Twilight 5:36 AM CST 6:34 PM CST
Moon 2:50 AM CST (11/21) 2:22 PM CST (11/21)
Length of Visible Light 10h 47m
Length of Day
9h 49m
Waning Crescent, 17% of the Moon is Illuminated
Nov 21
Waning Crescent
Nov 25
New
Dec 2
First Quarter
Dec 10
Full
Dec 17
Last Quarter

Hourly Weather History & Observations

Time (CST) Temp. Windchill Dew Point Humidity Pressure Visibility Wind Dir Wind Speed Gust Speed Precip Events Conditions
12:53 AM 35.1 °F - 28.9 °F 78% 30.26 in 10.0 mi Calm Calm - N/A   Overcast
1:04 AM 35.6 °F - 28.4 °F 75% 30.24 in 10.0 mi Calm Calm - N/A   Overcast
1:53 AM 35.1 °F 32.2 °F 28.9 °F 78% 30.25 in 10.0 mi North 3.5 mph - N/A   Overcast
2:53 AM 35.1 °F 31.0 °F 30.0 °F 82% 30.25 in 10.0 mi NNE 4.6 mph - N/A   Overcast
3:53 AM 35.1 °F 31.0 °F 30.0 °F 82% 30.26 in 10.0 mi North 4.6 mph - N/A   Overcast
4:53 AM 35.1 °F 31.0 °F 30.0 °F 82% 30.26 in 10.0 mi North 4.6 mph - N/A   Overcast
5:09 AM 35.6 °F 32.8 °F 30.2 °F 81% 30.23 in 10.0 mi NE 3.5 mph - N/A   Overcast
5:53 AM 36.0 °F 33.3 °F 30.0 °F 79% 30.25 in 10.0 mi East 3.5 mph - N/A   Overcast
6:53 AM 36.0 °F 33.3 °F 30.0 °F 79% 30.25 in 10.0 mi East 3.5 mph - N/A   Overcast
7:53 AM 36.0 °F - 30.0 °F 79% 30.27 in 10.0 mi Calm Calm - N/A   Overcast
8:53 AM 37.9 °F - 30.9 °F 76% 30.28 in 9.0 mi Calm Calm - N/A   Overcast
9:53 AM 37.9 °F - 32.0 °F 79% 30.28 in 8.0 mi Calm Calm - N/A   Partly Cloudy
10:53 AM 41.0 °F 39.0 °F 33.1 °F 73% 30.25 in 9.0 mi NNW 3.5 mph - N/A   Clear
11:36 AM 41.0 °F 38.0 °F 33.8 °F 76% 30.22 in 9.0 mi SW 4.6 mph - N/A   Mostly Cloudy
11:53 AM 42.1 °F - 33.1 °F 70% 30.23 in 9.0 mi Calm Calm - N/A   Overcast
12:53 PM 43.0 °F 41.3 °F 34.0 °F 71% 30.19 in 9.0 mi NNE 3.5 mph - N/A   Overcast
1:53 PM 44.6 °F 43.1 °F 33.8 °F 66% 30.15 in 10.0 mi East 3.5 mph - N/A   Overcast
2:53 PM 44.1 °F 40.8 °F 35.1 °F 71% 30.15 in 10.0 mi ESE 5.8 mph - N/A   Overcast
4:53 PM 43.0 °F 39.5 °F 36.0 °F 76% 30.14 in 7.0 mi East 5.8 mph - N/A   Overcast
5:53 PM 43.0 °F 40.3 °F 36.0 °F 76% 30.14 in 8.0 mi East 4.6 mph - N/A   Overcast
6:53 PM 43.0 °F 39.5 °F 37.0 °F 80% 30.09 in 7.0 mi East 5.8 mph - N/A   Overcast
7:53 PM 43.0 °F 38.8 °F 37.0 °F 80% 30.12 in 7.0 mi East 6.9 mph - N/A   Overcast
8:05 PM 42.8 °F 39.3 °F 37.4 °F 81% 30.11 in 7.0 mi East 5.8 mph - N/A   Overcast
8:24 PM 42.8 °F 39.3 °F 39.2 °F 87% 30.12 in 6.0 mi ENE 5.8 mph - N/A   Overcast
8:46 PM 42.8 °F 39.3 °F 39.2 °F 87% 30.12 in 6.0 mi ENE 5.8 mph - N/A   Overcast
8:53 PM 43.0 °F 39.5 °F 39.0 °F 86% 30.12 in 6.0 mi NE 5.8 mph - N/A   Overcast
9:53 PM 42.1 °F - 39.0 °F 89% 30.15 in 5.0 mi Calm Calm - N/A   Overcast
10:53 PM 42.1 °F 40.2 °F 39.0 °F 89% 30.13 in 4.0 mi NNE 3.5 mph - N/A   Overcast
11:10 PM 42.8 °F 41.1 °F 39.2 °F 87% 30.11 in 4.0 mi NNE 3.5 mph - N/A   Overcast
11:53 PM 42.1 °F 39.2 °F 39.9 °F 92% 30.11 in 3.0 mi NNE 4.6 mph - N/A   Overcast